Content
SEND FEEDBACK

Daily
Averages
Monthly
Summary
United States of America

MINGONA, KANSAS


Home > North America > United States > Kansas
Elevation: 1429 feet     Latitude: 37 17N     Longitude: 098 03W

WEATHER
 
SELECT A DAY
Number of Records: 182,607;   Date Range: 1/1/95 - 11/26/14
 
SHARE

PRINT THIS DATA

[ ← Previous Day ]
WEATHER ALMANAC - JANUARY 23, 2013
[ Next Day → ]
[ °C ]   °F
Weather ElementAverageHighLow
Temperature37.2 °F57 °F (3:56 pm)19.9 °F (6:56 am)
Dewpoint23.6 °F30.9 °F (7:56 pm)16 °F (6:56 am)
Humidity61.3 %85 % (1:56 am)36 % (3:56 pm)
Barometer30.22 in30.30 in (11:56 pm)30.13 in (1:56 pm)
Wind Speed5.8 mph19.6 mph (9:56 pm)
Wind Gust26.5 mph (9:56 pm)
Weather ElementAverage
Wind DirectionSE (134.3 °)

Weather ElementTotal
Precipitation---
Heating Degree Days26.6 (Base 65)
Averaged from 23 records on January 23, 2013
WEATHER CONDITIONS BREAKOUT
WIND DIRECTION BREAKOUT
WEATHER BY HOUR - JANUARY 23, 2013
[ °C ]   °F
Local TimeTemperatureDewpointHumidityBarometerVisibilityWind DirectionWind SpeedGust SpeedPrecipitationEventsConditions
1:56 AM21.9 °F18.0 °F85 %30.24 inNorth (10°)4.6 mph
2:56 AM21.9 °F17.1 °F82 %30.25 inNorth (350°)3.5 mph
3:56 AM21.9 °F18.0 °F85 %30.22 inWNW (300°)3.5 mph
4:56 AM21.0 °F17.1 °F85 %30.22 inNW (310°)3.5 mph
5:56 AM21.0 °F17.1 °F85 %30.21 inWest (270°)3.5 mph
6:56 AM19.9 °F16.0 °F85 %30.23 inNorth (360°)4.6 mph
7:56 AM19.9 °F16.0 °F85 %30.25 inNNW (340°)4.6 mph
8:56 AM26.1 °F19.9 °F78 %30.25 inCalm
9:56 AM35.1 °F25.0 °F67 %30.25 inCalm
10:56 AM43.0 °F24.1 °F47 %30.23 inWSW (250°)3.5 mph
11:56 AM48.0 °F26.1 °F42 %30.21 inCalm
12:56 PM50.0 °F28.0 °F43 %30.16 inVariable3.5 mph
1:56 PM55.9 °F30.0 °F37 %30.13 inSouth (180°)4.6 mph
2:56 PM55.9 °F30.0 °F37 %30.14 inESE (120°)4.6 mph
3:56 PM57.0 °F30.0 °F36 %30.13 inESE (110°)6.9 mph
4:56 PM54.0 °F30.0 °F40 %30.14 inESE (120°)3.5 mph
5:56 PM51.1 °F30.0 °F44 %30.17 inESE (110°)4.6 mph
6:56 PM42.1 °F30.0 °F62 %30.20 inNE (50°)5.8 mph
7:56 PM43.0 °F30.9 °F62 %30.23 inENE (60°)8.1 mph
8:56 PM41.0 °F25.0 °F53 %30.25 inNE (40°)16.1 mph
9:56 PM37.9 °F23.0 °F55 %30.26 inNE (40°)19.6 mph26.5 mph
10:56 PM36.0 °F21.0 °F55 %30.28 inNE (40°)13.8 mph26.5 mph
11:56 PM33.1 °F21.0 °F61 %30.30 inNNE (30°)11.5 mph
Hourly data recorded from KP28, located miles away from Mingona, Kansas







STORIES FROM OUR PARTNERS